Theta_e
276 275 275 275 275 275 275 275 276 276 275 276 275 275 274 274 272 269 269 270 271 272 274 274 274 274 274 275 275 275 274 277 278 275 274 274 274 278 283 285 285 286 286 287 287 287 288 289 289 289 290 290 291 291 291 291 291 291 292 292 293 293 294 294 295 295 295 295 295 296 296 296 297 298
276 276 275 275 276 275 274 275 274 274 274 275 275 274 274 274 272 271 270 270 272 271 273 274 272 273 274 275 275 275 274 277 277 275 274 274 274 280 281 282 283 284 286 286 285 287 288 288 288 288 289 289 290 291 290 290 290 291 292 292 292 293 293 294 294 294 293 294 295 295 295 296 296 296
275 274 274 274 274 274 274 274 274 274 274 274 274 274 274 275 273 273 272 268 271 274 272 273 273 273 273 274 274 274 274 276 276 274 273 273 277 279 277 279 281 283 284 284 285 287 288 288 288 288 288 289 289 290 290 289 289 290 290 291 292 292 293 293 292 292 292 293 294 294 294 295 295 296
275 274 274 274 274 273 273 273 273 273 274 273 274 274 274 273 273 273 273 271 271 273 272 272 273 273 273 273 273 272 274 275 276 274 274 274 277 275 274 277 280 281 282 284 285 286 287 288 288 288 288 288 289 289 289 289 289 289 289 290 291 291 291 291 291 291 292 292 292 292 293 293 294 295
274 273 273 273 273 273 273 273 273 273 273 273 274 274 273 273 272 272 271 270 270 271 273 273 273 272 273 271 272 272 272 272 273 275 273 274 273 274 274 274 277 280 281 283 285 286 287 288 287 287 287 287 288 288 288 288 288 288 289 289 290 291 291 291 291 290 290 291 291 291 292 293 293 294
274 273 272 272 273 272 272 272 272 272 272 272 272 272 272 271 272 272 271 270 270 269 271 272 273 271 272 271 273 272 271 272 273 272 273 274 274 274 274 274 274 279 281 283 285 286 286 287 287 287 286 287 287 288 288 287 287 288 288 288 288 288 289 289 289 289 289 290 290 291 291 292 293 293
272 272 272 272 272 272 271 271 272 272 271 272 271 271 272 271 271 271 271 270 268 268 269 271 270 270 271 271 271 272 272 273 273 272 273 273 274 275 274 274 274 279 281 284 284 285 285 285 286 286 286 286 286 287 287 287 287 287 287 287 287 287 287 287 288 288 288 289 290 290 290 291 292 292
272 272 271 271 271 270 270 270 270 271 271 271 271 271 271 271 271 271 271 271 270 268 268 269 270 271 270 271 272 272 272 272 272 273 273 274 274 274 275 274 274 277 282 283 283 283 284 284 285 285 285 286 286 286 286 286 286 286 286 286 286 286 286 286 286 286 286 287 289 290 290 291 291 291
272 272 272 271 270 270 270 270 269 270 269 270 270 270 270 270 271 271 272 271 271 269 268 268 270 271 271 272 271 272 271 272 272 273 273 273 274 274 274 275 276 279 281 281 281 281 282 283 284 284 284 285 285 285 285 285 285 285 285 285 284 285 285 285 285 286 286 287 287 288 289 290 290 290
272 272 271 271 271 271 271 271 270 269 269 269 269 269 269 270 270 270 270 271 270 270 268 268 268 269 270 270 271 272 272 271 271 272 273 273 273 274 274 275 276 276 276 276 277 279 279 280 281 281 281 283 284 284 284 284 284 283 283 283 283 283 284 285 285 286 286 286 286 287 288 289 289 289
272 272 272 271 271 271 271 271 270 270 269 269 269 269 269 269 269 269 269 269 269 269 268 268 269 269 270 270 269 271 272 272 272 271 272 272 273 274 274 274 275 276 276 277 279 278 278 278 277 279 280 281 282 283 283 283 282 282 282 282 283 283 284 285 286 286 286 286 286 286 286 287 288 289
271 271 272 272 271 271 271 271 271 270 270 269 269 269 269 269 269 269 268 268 268 268 268 268 268 268 269 270 271 272 272 272 273 274 273 270 271 272 274 274 273 274 274 273 274 275 275 275 275 277 278 278 280 281 281 280 280 280 282 283 284 284 284 285 285 285 285 285 285 286 286 286 286 288
271 271 271 272 272 272 274 276 275 274 274 269 268 269 269 268 269 267 265 266 266 265 266 267 268 268 269 270 271 271 272 272 272 273 273 271 273 274 273 273 274 273 272 272 272 271 272 271 271 272 273 274 276 277 279 279 279 281 283 283 283 284 284 284 285 285 285 285 285 285 286 286 286 286
271 272 272 272 275 276 277 278 278 279 279 277 273 270 269 269 268 264 263 264 264 265 264 266 267 267 268 270 271 272 273 274 274 272 272 271 273 273 271 271 271 273 272 270 269 269 271 271 271 272 272 274 275 275 275 275 278 280 282 282 283 283 283 284 284 284 284 284 284 284 284 284 285 285
271 272 272 271 274 276 277 277 279 280 280 280 279 278 277 274 270 265 264 263 265 263 264 265 267 269 270 271 273 273 273 273 272 272 272 272 272 270 268 266 269 272 270 269 267 267 270 271 270 271 272 272 273 274 274 277 279 280 281 282 282 282 282 283 283 284 284 284 284 284 284 284 285 285
271 271 271 272 272 272 273 273 274 277 280 281 281 281 280 279 278 276 270 266 263 264 266 267 270 271 271 272 273 273 273 272 272 273 273 272 271 269 268 268 266 270 271 268 266 266 270 271 270 269 270 272 272 272 275 278 279 280 281 281 281 281 282 282 282 282 283 283 283 283 284 284 284 284
271 270 270 271 271 271 275 274 272 271 271 277 280 280 280 280 280 280 280 278 272 271 271 271 272 272 273 272 273 275 273 274 272 273 272 271 270 269 268 268 268 269 270 268 266 266 268 269 268 268 270 270 271 271 274 277 279 280 280 280 280 281 281 282 282 282 282 282 283 283 283 283 283 284
271 271 270 270 270 271 271 272 272 271 270 270 271 271 270 269 272 277 279 279 279 277 275 274 273 274 275 274 275 275 275 273 272 271 269 270 269 268 268 268 268 268 269 267 266 264 265 267 267 266 268 270 270 270 273 277 278 279 279 280 280 280 281 281 281 281 281 282 282 282 283 283 283 283
271 271 271 270 270 270 270 271 272 271 270 268 268 267 267 268 268 269 270 271 272 274 274 274 275 275 276 276 275 275 275 275 273 272 270 269 269 268 267 266 266 267 269 268 265 260 264 267 266 266 267 269 269 270 273 275 277 278 278 279 280 280 280 280 280 280 281 281 282 282 282 282 282 283
271 271 270 270 270 270 270 272 277 275 270 267 265 265 265 265 267 268 272 274 275 274 274 274 275 276 276 277 277 277 277 275 272 269 266 266 263 261 261 261 263 262 266 267 265 262 263 266 265 265 267 268 267 268 269 273 275 277 278 278 279 279 279 279 279 280 280 281 281 281 282 282 282 282
271 271 270 270 270 270 269 273 277 279 277 268 266 265 264 265 265 267 270 275 278 279 280 280 280 280 280 280 279 279 278 275 273 265 264 261 259 259 260 261 261 261 264 265 265 264 262 265 265 265 266 266 266 267 268 269 273 276 277 277 277 278 278 278 279 279 280 280 280 280 281 281 281 281
270 271 273 272 270 270 270 274 277 279 277 271 268 266 266 265 266 268 271 272 274 279 280 280 280 280 279 278 277 275 275 274 273 263 262 260 260 260 260 259 260 262 263 264 266 261 262 265 266 265 266 266 266 267 267 269 270 273 273 274 276 276 277 278 278 278 279 279 279 280 280 280 281 278
270 270 272 274 274 272 272 275 277 279 277 272 271 269 268 268 269 270 272 272 272 274 275 275 275 274 275 269 267 267 272 272 271 268 264 261 259 259 259 259 260 259 259 263 267 262 263 264 266 265 262 261 265 267 267 267 268 269 269 269 270 274 276 276 277 277 277 278 278 279 280 280 280 277
269 269 269 272 277 279 278 278 278 279 280 274 272 271 270 270 270 272 272 273 274 274 273 273 272 272 270 269 267 266 265 265 265 266 266 264 262 260 259 259 259 259 260 262 268 264 265 265 264 265 264 261 260 264 266 266 267 267 268 268 268 272 274 274 273 275 276 277 278 278 279 279 279 277
270 269 269 269 273 277 279 280 280 280 280 279 275 272 271 271 272 274 273 274 277 274 272 270 268 267 266 265 265 264 263 263 264 264 267 266 265 263 260 259 259 260 262 264 269 265 263 264 262 263 263 263 263 263 265 266 266 267 268 268 268 269 269 269 270 269 273 275 276 278 278 279 280 279
269 270 269 268 271 275 277 279 281 281 281 281 277 276 278 278 278 276 276 274 273 269 268 266 264 263 262 262 261 261 261 261 262 263 264 265 265 265 264 262 260 259 260 264 269 265 263 262 263 262 262 262 262 263 262 263 265 266 267 268 268 268 269 268 268 269 269 270 271 273 275 280 280 280
271 270 268 269 272 275 276 277 279 280 282 281 279 281 281 280 280 279 274 269 268 266 265 264 264 264 262 261 261 260 260 261 261 262 264 264 264 264 265 265 265 264 264 265 266 265 263 262 263 262 261 263 262 262 262 262 263 266 266 267 267 268 268 268 268 268 269 270 271 276 277 278 279 279
272 270 268 268 273 275 276 277 278 279 280 279 281 281 282 281 281 278 270 268 267 266 264 264 264 264 263 261 260 260 260 261 261 262 263 263 264 264 263 264 264 264 265 265 264 265 264 262 262 263 263 262 261 260 260 264 264 264 264 266 266 267 267 268 268 268 269 270 271 272 272 272 273 274
273 274 275 275 276 276 277 278 278 278 279 280 281 281 281 280 278 274 269 268 266 265 265 265 265 263 263 263 263 262 261 261 262 261 260 260 260 260 261 261 262 262 263 264 264 264 264 263 262 263 263 263 262 262 262 261 263 263 264 263 262 265 266 267 268 268 269 270 270 271 271 271 271 273
280 279 279 279 278 278 277 275 274 274 274 278 279 280 279 278 276 272 270 267 266 267 266 265 264 263 263 262 262 263 262 259 259 258 257 257 258 257 258 258 259 260 261 262 263 264 264 264 264 263 263 263 263 262 262 262 261 263 263 263 263 265 266 267 267 268 268 268 269 270 271 271 272 273
277 279 280 278 278 278 278 277 277 276 276 275 275 275 276 275 271 270 269 269 268 267 266 264 263 262 261 261 261 260 259 258 258 259 258 256 257 258 258 258 259 260 260 258 262 264 264 264 265 265 262 262 262 262 262 262 261 261 262 263 263 261 264 266 267 267 268 269 269 270 271 271 272 274
275 276 278 279 278 277 276 275 275 275 274 274 273 273 273 271 268 268 270 270 266 266 265 263 259 257 258 258 259 259 257 258 258 258 257 256 257 257 258 258 258 259 259 258 259 260 263 264 264 264 264 263 261 261 262 261 260 261 261 262 263 264 265 265 266 267 269 269 269 269 270 271 271 273
273 273 274 274 275 274 273 273 273 273 273 272 272 272 272 269 267 266 266 265 264 263 261 261 259 259 257 258 258 258 258 258 258 259 257 258 257 257 257 258 258 258 257 258 259 259 260 261 262 264 263 263 263 262 260 259 260 261 260 261 262 263 264 266 267 267 269 268 268 268 268 270 272 273
271 271 272 273 273 273 273 272 272 272 271 270 269 267 269 267 265 264 264 264 264 262 261 261 259 259 258 258 258 257 257 258 258 259 261 258 257 257 257 257 257 258 258 258 258 258 259 260 260 261 261 262 262 262 262 260 260 261 262 262 262 262 265 266 267 268 268 267 267 267 268 269 271 273
271 271 271 271 272 272 272 272 272 272 270 269 268 268 266 266 265 266 264 263 263 262 261 260 260 259 258 259 259 258 258 257 257 257 258 257 256 255 256 256 257 257 257 257 257 258 259 259 259 259 259 260 260 260 265 264 260 261 262 262 263 263 264 266 266 267 267 267 268 267 267 268 269 272
271 271 270 271 271 271 271 271 271 271 271 270 269 268 267 266 266 265 265 265 264 262 261 260 260 259 258 259 258 258 257 257 256 255 257 257 256 255 254 256 257 257 256 256 257 258 258 258 258 258 257 257 257 256 258 265 266 263 262 261 263 264 265 266 266 266 266 267 268 267 266 266 267 269
272 271 270 270 270 270 270 270 270 270 270 270 270 269 268 268 267 266 266 268 265 263 262 261 261 260 259 259 258 257 257 257 256 255 256 256 256 255 255 256 257 257 256 256 256 258 257 256 256 257 257 257 256 255 257 261 264 267 264 262 263 264 265 265 265 265 267 267 267 267 267 267 267 268
273 273 271 270 270 270 270 270 270 269 269 269 269 269 269 269 269 268 266 265 264 262 262 262 261 260 259 258 257 257 256 256 255 254 255 256 255 254 254 255 255 256 256 256 257 257 256 255 255 257 258 256 256 256 256 259 260 261 266 265 263 264 266 265 264 265 266 267 267 267 268 267 267 268
273 272 272 271 271 271 270 270 270 270 270 269 268 268 268 268 268 267 264 263 263 262 261 261 260 259 259 258 258 257 256 254 254 254 255 255 255 255 255 255 255 256 255 256 256 255 254 253 254 255 258 257 257 257 258 257 258 261 264 268 266 264 264 265 264 265 265 265 266 267 268 269 271 274
268 268 268 267 267 267 267 267 268 268 268 268 268 268 267 266 266 265 264 263 262 262 261 260 260 260 258 258 257 256 256 255 255 255 255 255 256 256 255 255 255 256 256 256 256 256 254 255 256 256 259 260 260 261 260 260 261 262 262 265 269 267 265 266 265 265 264 266 266 265 265 267 267 269
265 264 264 265 265 265 264 265 265 265 265 265 265 266 266 265 265 264 263 263 262 261 260 260 259 259 258 258 257 256 255 255 255 255 255 255 256 257 257 258 257 256 255 255 255 255 255 256 259 264 262 260 260 260 259 258 258 259 260 262 266 269 270 270 266 265 265 266 266 265 265 265 266 267
262 261 262 262 262 262 262 262 263 263 263 263 263 263 263 263 263 264 264 264 262 260 260 259 258 258 258 257 257 256 256 255 255 256 255 255 254 255 256 256 254 255 254 254 255 255 257 259 260 259 258 257 258 258 257 258 257 258 259 261 262 266 268 269 270 269 267 266 265 264 265 266 267 266
259 259 259 260 260 260 260 260 260 261 261 262 262 262 261 261 261 261 261 261 261 260 259 259 258 257 257 257 256 256 255 255 255 255 255 255 254 253 254 254 254 255 255 255 256 256 257 258 258 257 257 256 257 258 257 258 258 259 259 259 260 261 262 267 268 269 270 270 270 269 268 267 265 263
254 254 254 255 255 255 256 257 257 258 259 259 260 260 260 260 260 260 260 259 260 259 259 258 258 257 256 256 255 254 254 254 254 254 254 254 254 254 254 255 255 255 255 255 255 255 255 256 256 256 256 256 257 257 258 258 258 259 259 259 260 259 259 261 262 265 266 267 268 270 271 272 272 271
252 250 251 251 251 251 252 253 254 255 255 256 257 257 258 258 258 258 258 258 257 258 257 257 256 256 255 255 254 253 254 256 255 254 255 254 254 255 254 254 254 254 254 254 253 254 254 255 256 256 255 256 256 257 258 258 258 258 258 258 258 258 258 259 259 259 259 260 265 270 270 271 271 271
Wind_Speed
5 4 4 5 4 3 3 3 3 3 2 2 3 4 5 4 1 1 1 3 3 3 2 1 1 1 4 5 5 5 4 7 9 5 6 7 7 13 19 20 20 20 21 21 22 22 23 24 24 25 26 26 27 28 27 27 27 28 28 28 28 28 27 27 28 28 28 29 29 29 28 29 29 29
5 5 5 4 5 2 3 4 2 3 3 4 3 3 3 4 5 3 3 4 3 3 3 3 2 3 5 5 5 4 5 9 9 5 6 6 7 16 18 19 20 20 21 22 22 23 24 24 25 26 27 28 28 29 29 28 28 28 29 29 28 28 27 27 28 28 28 29 29 29 29 29 29 29
6 5 5 3 4 3 3 3 3 2 2 3 3 2 1 3 3 4 3 0 4 3 5 3 0 0 2 4 4 3 4 7 9 6 6 6 12 17 12 17 19 20 21 22 23 24 25 26 27 27 29 29 29 29 29 29 29 29 29 29 29 28 27 27 28 28 28 29 29 29 29 29 29 29
6 6 5 4 4 3 3 3 3 2 1 2 3 3 3 1 2 3 4 4 8 2 3 4 3 1 2 5 5 3 4 5 9 5 6 8 12 8 7 12 17 19 21 21 23 24 25 26 27 28 28 29 29 29 29 29 29 29 29 29 28 28 28 27 28 28 28 28 28 29 29 29 29 29
5 5 5 4 3 3 4 3 3 2 1 1 2 3 3 4 2 3 3 4 7 5 2 2 2 2 3 4 2 5 5 6 5 6 6 7 7 7 7 7 12 17 20 21 23 24 25 25 26 27 28 28 29 29 29 28 28 28 28 28 28 28 28 28 27 28 28 28 28 28 29 29 28 28
5 5 6 4 4 3 4 3 3 3 2 2 3 2 4 4 3 1 4 3 3 6 1 4 3 2 2 5 2 5 9 8 6 7 6 5 5 7 7 7 7 15 18 21 23 24 24 25 26 27 27 27 28 29 29 29 29 28 29 28 28 28 28 28 28 28 29 28 28 28 28 28 28 28
5 5 5 5 4 3 4 3 4 3 3 3 4 4 2 3 2 2 2 2 3 6 6 2 2 2 3 4 5 6 6 7 7 9 8 7 6 5 6 7 6 12 18 21 23 23 24 24 25 26 26 28 28 28 28 29 29 30 30 30 29 28 28 28 28 29 29 28 28 27 27 27 27 27
6 7 6 5 5 4 5 4 4 3 4 4 4 4 3 3 3 2 2 2 3 2 5 2 1 5 6 4 4 6 6 7 8 7 8 6 6 7 6 6 6 9 18 20 21 22 23 23 24 25 27 28 28 29 30 30 31 30 30 28 28 28 28 29 29 28 27 27 27 27 27 27 27 27
7 7 7 6 6 6 6 4 5 5 5 5 5 5 4 4 3 2 2 3 2 4 7 7 3 3 4 5 5 5 8 10 7 5 7 8 7 6 5 5 6 12 17 17 19 19 21 22 24 27 29 29 30 29 29 29 29 28 28 28 28 28 29 28 27 27 26 26 27 28 28 27 27 27
6 7 6 7 7 7 8 7 6 6 7 5 6 5 5 5 3 3 3 2 4 5 6 5 8 4 5 8 4 4 6 9 12 11 5 3 4 6 9 6 6 6 6 7 8 12 15 19 26 27 27 28 28 27 27 26 27 27 28 28 27 27 26 26 27 27 27 27 27 27 27 27 27 27
6 6 6 6 7 8 7 7 8 7 6 6 7 7 6 5 4 4 4 4 4 5 5 5 5 7 5 4 9 7 5 7 7 9 11 12 6 4 5 10 9 6 7 8 14 14 17 21 18 23 26 26 26 25 25 26 27 27 27 26 26 26 26 27 27 28 28 28 27 27 27 26 26 26
6 6 6 6 7 7 7 7 7 7 8 6 6 6 5 5 5 5 4 4 4 4 5 5 6 5 7 7 5 6 6 6 4 3 7 11 13 13 9 5 9 11 9 9 8 10 14 14 17 20 20 22 24 25 24 24 25 26 26 26 28 29 30 30 30 29 29 29 28 27 26 26 25 25
5 5 6 6 6 7 8 11 9 9 8 7 7 6 5 5 6 4 4 4 3 3 3 5 4 6 7 6 7 7 5 6 8 7 6 8 9 10 12 8 6 7 9 8 10 10 9 12 10 10 10 11 18 18 22 19 22 24 27 30 31 30 29 28 28 27 27 27 27 26 26 25 23 24
6 6 6 6 9 10 11 13 15 15 15 13 9 7 7 6 5 5 5 5 5 4 4 4 5 5 7 6 6 8 8 7 6 7 8 10 11 10 11 11 1 5 6 9 13 12 8 9 10 8 10 10 12 11 10 10 19 27 30 28 28 29 29 29 29 28 27 27 26 26 25 25 24 25
8 7 6 6 7 9 11 11 16 16 16 16 15 14 13 11 9 7 7 6 5 6 5 3 4 6 9 9 8 8 8 6 6 8 9 9 10 10 11 13 12 2 7 10 12 14 9 8 9 9 9 10 10 10 12 24 27 27 27 29 29 29 29 29 29 29 29 29 28 27 27 26 26 26
7 7 7 6 6 7 8 7 7 11 14 16 15 16 15 15 16 14 10 7 5 4 5 5 6 7 9 9 8 8 7 6 8 9 9 8 9 11 11 10 11 8 9 11 12 14 9 7 8 9 9 9 10 13 22 27 26 27 28 29 29 29 29 29 29 30 29 29 28 27 27 26 26 25
7 6 7 7 7 7 11 9 7 7 7 10 13 14 14 14 16 17 17 14 10 7 7 7 8 8 8 10 8 7 6 10 12 9 6 6 8 9 11 11 11 10 8 10 10 12 11 8 8 9 9 9 11 14 18 26 27 28 27 28 28 28 29 30 29 28 28 27 27 27 27 26 26 25
8 8 8 8 8 7 7 7 8 7 7 7 6 6 4 4 5 9 14 16 17 13 8 7 9 9 9 9 9 5 7 10 7 5 6 8 9 10 10 12 11 10 7 7 9 12 10 6 9 10 9 8 11 11 18 27 28 27 27 26 27 29 29 28 28 28 27 27 27 27 27 26 26 25
8 8 8 7 8 6 7 8 9 8 8 6 6 6 6 6 6 6 7 6 4 5 5 7 9 9 8 7 7 8 7 6 5 6 7 6 7 9 9 9 6 6 4 5 5 7 10 8 10 10 10 10 11 11 18 25 26 26 25 26 28 28 28 29 29 28 28 28 27 27 27 26 26 25
8 7 8 8 8 8 7 10 16 13 7 6 7 8 6 5 6 7 7 11 11 9 8 8 9 7 6 9 9 9 6 4 3 2 3 3 4 6 8 10 5 3 4 3 6 7 9 6 10 12 9 9 11 12 12 19 23 23 25 28 27 27 28 28 28 28 28 28 28 27 27 26 26 25
7 8 8 8 8 8 9 11 15 16 13 7 9 8 8 7 6 8 6 12 17 19 20 20 20 21 18 16 16 14 12 9 7 2 4 6 2 4 8 10 6 5 3 5 6 6 10 8 9 12 9 10 13 12 11 10 15 23 27 26 27 27 28 28 27 27 27 27 27 27 27 27 26 26
8 8 12 11 9 10 10 11 16 17 14 8 8 8 8 8 9 8 6 6 9 18 20 21 20 17 16 13 9 8 11 11 9 1 6 3 0 5 4 7 8 10 6 6 2 3 6 9 9 12 10 11 8 9 9 10 14 21 19 24 27 27 26 26 27 26 26 26 26 26 26 25 25 15
8 8 9 17 15 13 11 14 15 18 14 8 8 8 7 10 11 9 6 8 8 8 8 7 6 6 4 1 1 4 9 11 8 3 3 2 3 6 6 6 7 9 3 3 4 6 8 9 9 9 12 10 8 6 6 10 11 9 10 12 16 22 25 25 24 25 26 26 26 26 26 25 22 12
8 8 8 12 20 22 20 18 18 18 20 11 8 7 9 9 14 5 6 9 8 8 9 8 5 5 3 1 2 4 4 5 3 5 4 4 4 5 5 5 5 7 4 2 6 8 9 7 9 7 7 11 11 4 8 10 9 10 10 12 12 18 21 21 19 25 26 26 27 26 26 24 22 12
10 9 9 8 13 18 19 19 20 20 21 19 10 10 11 12 8 5 8 9 15 9 7 6 5 3 1 3 3 3 3 3 4 4 6 5 4 5 5 6 7 9 10 9 11 6 7 6 10 8 7 6 10 14 9 10 12 10 9 9 11 11 10 11 11 12 17 24 25 26 25 24 24 18
10 11 8 7 9 15 18 19 20 22 21 22 13 13 18 18 18 13 10 8 7 6 6 5 5 4 4 4 4 4 4 5 5 4 5 6 6 6 6 7 8 9 10 3 9 7 8 9 8 9 8 8 10 10 16 13 12 11 7 8 9 10 8 11 11 10 10 11 12 15 19 24 22 21
11 7 6 6 10 14 16 18 20 21 23 19 16 23 22 21 21 17 8 7 6 6 5 5 6 6 5 5 6 5 6 5 4 5 5 6 6 7 7 8 9 10 11 8 6 7 7 9 7 8 9 9 10 13 12 13 14 10 11 10 10 10 11 8 10 10 10 11 12 23 21 19 20 22
9 8 7 7 13 16 17 19 20 20 20 15 21 24 24 23 21 12 5 7 7 7 6 7 7 6 5 5 6 6 6 5 4 5 5 6 6 7 6 7 8 10 11 10 7 7 8 9 9 7 9 10 11 12 13 12 13 14 13 10 10 12 9 10 10 10 10 10 12 12 12 12 11 12
9 11 15 16 18 18 19 20 20 18 20 24 23 24 24 20 11 8 6 7 7 8 9 8 7 6 6 8 7 5 3 3 3 3 3 3 4 5 6 7 8 9 8 7 7 7 7 8 9 8 8 8 10 12 12 15 13 14 12 13 12 11 11 8 8 10 11 11 12 12 12 12 12 11
16 18 21 22 21 20 18 13 11 10 10 17 22 23 22 11 10 6 7 7 9 10 8 7 8 7 5 4 4 4 4 3 6 3 3 3 5 3 4 5 6 6 7 7 7 7 7 7 8 9 9 9 9 12 12 12 12 9 9 9 10 12 10 8 10 10 11 11 11 11 11 10 11 10
14 16 15 12 16 15 20 20 17 15 14 13 13 10 9 8 5 6 8 9 9 9 6 6 6 4 4 2 2 3 4 5 5 3 4 3 5 4 5 5 8 7 6 4 5 6 6 7 8 9 9 9 10 11 11 10 13 12 12 10 9 10 11 11 10 10 9 11 13 13 11 10 10 9
12 12 12 14 10 10 10 11 10 9 8 9 9 8 8 7 4 5 6 6 5 4 4 3 2 2 3 4 5 4 4 5 5 3 3 3 5 3 4 4 7 6 7 4 5 5 6 6 7 7 8 8 11 13 11 10 11 11 12 11 9 10 10 10 13 12 12 13 13 12 12 10 10 9
9 9 9 9 9 8 9 8 9 8 8 8 8 9 9 6 6 6 6 7 7 6 5 6 6 6 5 5 4 5 4 5 5 2 3 4 5 4 3 6 7 7 8 8 5 5 5 6 6 8 7 8 10 12 12 12 11 8 9 10 9 9 9 9 11 14 15 14 13 14 15 13 9 9
8 9 8 9 9 8 8 8 8 8 6 7 6 5 5 5 6 6 6 7 6 5 7 6 6 6 5 5 5 5 6 4 4 4 5 3 2 3 4 6 7 6 6 8 7 7 6 7 6 6 7 8 9 11 11 11 12 10 8 9 9 11 11 10 12 15 13 9 12 13 15 16 11 6
9 8 8 9 8 8 7 9 9 6 6 6 6 6 6 6 6 6 7 7 5 6 6 6 6 5 6 6 5 6 5 5 4 3 3 4 4 4 4 5 7 6 6 7 7 6 6 8 6 8 9 8 9 7 10 12 10 8 7 8 8 10 11 10 10 10 10 11 9 12 12 14 15 8
8 7 7 8 7 6 7 8 7 7 8 7 7 6 6 7 7 8 9 9 8 7 6 6 7 7 7 6 6 5 5 5 4 4 4 4 4 3 4 5 6 7 5 6 7 6 6 6 5 7 9 9 9 11 11 2 6 8 9 10 9 9 10 11 10 10 10 9 10 11 12 13 15 14
7 6 7 8 8 7 8 8 8 8 8 8 8 8 9 9 8 9 11 8 7 7 8 7 7 7 6 6 6 6 6 6 5 4 4 4 4 3 4 6 6 6 6 6 5 7 5 5 3 5 7 8 8 10 14 11 14 12 7 8 10 8 11 11 11 11 9 7 10 11 11 12 14 15
7 6 6 8 8 8 8 8 7 8 8 8 9 9 9 9 9 8 5 6 8 7 7 7 6 5 5 6 6 6 5 5 4 4 5 4 4 4 5 6 6 6 7 7 6 6 6 5 5 5 5 7 9 10 13 14 12 8 5 8 10 12 10 11 11 11 11 8 9 12 11 12 13 13
4 4 4 3 3 4 5 6 6 7 7 7 7 8 8 8 7 5 5 6 6 6 6 6 6 6 6 6 6 6 6 5 5 5 4 4 4 5 5 5 6 6 5 8 5 5 4 4 5 5 5 6 7 9 9 12 15 16 17 21 12 10 9 10 11 11 10 11 10 8 7 8 13 19
5 5 5 5 5 5 6 7 7 7 6 6 5 5 5 6 5 5 5 4 5 5 5 5 5 5 5 5 6 4 4 5 6 5 5 4 4 4 5 4 6 7 6 7 7 6 4 6 6 5 6 7 8 9 10 12 13 14 13 14 16 13 10 9 10 11 11 10 10 10 12 11 10 8
5 5 5 6 5 6 5 5 5 6 6 7 6 6 5 5 5 5 5 6 5 5 5 5 5 5 5 5 5 6 6 5 5 5 4 4 4 5 6 6 6 5 7 9 7 7 7 6 7 14 13 8 9 9 8 8 9 10 11 11 12 19 20 17 11 10 10 11 10 11 11 11 11 11
5 5 5 6 6 6 6 6 6 6 6 6 5 5 5 5 5 7 6 5 4 4 4 4 4 5 5 5 5 5 6 5 5 5 5 4 4 4 6 4 6 6 6 8 8 8 7 7 8 7 6 6 6 6 9 9 10 11 11 11 10 13 18 21 21 18 12 10 10 10 10 10 8 9
4 4 5 5 5 5 6 6 7 7 7 6 6 5 5 5 5 5 5 5 4 4 4 4 4 5 5 5 5 5 5 5 5 5 4 4 5 5 5 5 5 6 6 7 8 7 8 8 7 7 7 4 5 5 8 9 10 10 11 11 11 10 11 17 20 21 19 18 14 10 8 8 8 8
4 3 4 4 4 4 4 5 5 5 6 6 6 6 6 5 5 5 4 4 4 4 4 5 4 5 5 5 4 4 5 5 5 5 6 5 5 5 5 5 4 5 6 7 8 7 6 7 7 6 7 7 5 6 8 9 9 9 9 11 10 10 12 11 12 15 13 9 12 16 19 18 15 16
3 3 4 4 5 4 5 6 5 5 5 5 5 5 6 5 5 4 4 4 4 5 4 5 5 5 5 5 5 6 6 5 5 5 4 4 5 5 3 3 5 5 6 5 6 8 6 6 7 6 5 6 5 6 8 8 10 11 11 11 12 10 9 9 11 12 12 12 14 21 21 21 19 19
Wind_Direction
116 108 110 117 121 109 97 84 92 93 79 114 140 146 168 194 186 255 310 265 203 292 222 249 278 45 9 14 1 343 336 332 340 339 335 326 323 322 333 333 333 331 330 328 327 325 323 323 323 322 321 321 320 317 316 316 314 314 312 310 310 311 311 309 308 309 311 310 309 308 307 305 304 303
113 110 103 116 116 124 104 114 113 114 129 126 131 148 173 170 191 198 180 264 206 237 298 200 259 333 10 358 339 328 321 326 337 328 317 319 309 323 329 328 327 327 326 325 323 323 323 323 322 321 320 320 319 318 317 315 314 312 311 311 311 310 309 309 311 311 311 310 309 309 308 305 305 304
119 121 119 121 123 127 113 109 100 101 118 121 118 137 143 205 185 177 151 188 284 151 237 285 225 331 326 331 309 303 307 319 331 320 308 305 312 320 316 319 322 322 322 321 323 323 323 322 322 322 321 320 318 317 316 314 313 312 312 311 310 309 310 311 311 311 310 310 308 307 306 305 304 302
126 128 132 144 139 139 120 112 119 122 104 125 140 162 164 182 169 151 173 202 249 234 196 254 294 342 309 310 298 296 298 310 320 306 303 301 309 305 299 307 313 316 317 320 324 324 324 324 323 322 320 319 317 316 315 314 313 312 311 310 310 310 310 310 310 310 309 308 307 305 305 303 302 302
132 135 138 151 147 144 133 145 142 138 151 130 170 164 160 163 175 146 168 214 275 286 253 223 267 304 322 305 284 309 311 313 309 307 293 291 294 296 295 297 302 307 313 319 324 325 325 325 323 321 320 319 318 316 314 313 312 311 311 311 310 309 310 311 311 310 309 308 305 304 303 302 302 303
143 141 142 155 153 158 147 157 169 174 168 175 171 215 174 179 177 205 151 247 256 280 324 311 305 290 305 294 307 331 325 320 314 306 299 288 281 293 295 294 292 301 312 321 325 326 325 323 323 322 321 320 319 316 315 314 314 313 312 311 311 310 310 311 311 311 309 306 304 302 301 302 303 304
148 145 151 166 161 151 153 178 189 174 188 188 186 207 199 184 203 178 149 146 264 285 293 226 281 261 313 299 307 317 305 301 302 305 307 306 299 285 284 288 285 295 309 322 325 326 325 324 322 322 321 320 319 317 315 314 313 313 313 312 313 313 313 313 312 309 306 304 302 301 301 303 304 305
160 162 158 173 167 165 172 190 193 200 191 193 200 194 209 185 197 198 163 200 206 279 294 270 29 306 320 300 301 303 299 299 306 301 295 290 290 289 286 279 282 290 310 321 322 323 323 322 322 321 321 320 318 315 313 314 314 313 312 312 313 315 315 313 309 306 304 302 301 302 303 303 303 304
165 169 174 174 171 172 180 198 196 199 198 205 191 198 202 192 195 190 191 215 242 258 270 288 285 289 290 290 303 310 321 318 304 284 286 300 295 291 282 275 287 302 315 318 320 320 321 322 323 323 322 320 318 317 317 316 315 315 316 316 316 314 311 308 306 305 303 303 304 303 302 302 303 304
178 173 178 177 176 182 188 201 201 196 204 196 199 200 204 195 188 193 214 210 220 241 259 268 297 313 320 315 306 318 314 315 316 316 294 253 270 310 316 308 306 307 314 320 316 322 322 325 325 323 320 319 319 318 317 316 318 319 319 316 313 310 308 306 304 303 305 306 305 303 303 303 303 303
180 178 177 182 186 192 198 197 201 199 203 196 205 202 196 198 184 204 210 212 226 237 258 269 259 292 298 299 310 321 296 282 284 297 321 325 318 296 301 315 318 316 315 316 322 323 322 321 323 321 320 319 318 317 318 320 319 319 317 315 313 310 308 308 309 309 308 307 305 304 304 303 303 303
188 187 187 189 196 197 203 200 205 193 201 196 207 208 191 194 193 206 210 217 227 242 259 270 289 288 299 304 273 283 295 293 273 281 327 315 320 323 322 317 326 321 324 327 324 323 318 319 320 318 314 313 317 318 317 315 315 314 314 312 313 314 315 313 310 308 306 306 304 304 303 303 302 305
195 195 196 199 200 203 207 209 205 203 197 185 204 212 190 196 195 203 207 212 223 250 258 276 286 291 294 290 303 308 306 314 315 321 315 297 302 309 310 317 330 309 321 325 317 315 323 318 319 310 307 311 316 310 310 311 310 313 316 317 316 315 314 313 311 308 307 306 306 303 302 303 307 310
209 204 202 207 204 209 214 219 223 221 218 209 195 193 189 193 192 199 200 214 217 226 241 253 272 285 285 295 296 295 298 306 313 312 311 308 313 315 308 302 255 319 330 331 319 313 323 311 305 304 310 315 317 308 309 314 318 319 318 316 317 318 317 315 313 313 314 313 311 314 316 314 311 310
209 211 208 210 216 218 223 225 227 228 227 227 218 207 199 192 184 186 201 216 199 204 228 233 241 262 281 286 286 288 298 306 314 308 305 306 314 319 322 317 321 94 9 333 319 308 319 308 308 316 315 314 311 312 312 315 317 316 316 319 320 319 318 317 316 318 320 320 320 317 315 314 310 307
209 211 210 215 209 217 219 217 228 234 234 231 231 230 223 217 207 196 187 195 201 200 216 238 237 260 271 279 281 287 299 306 303 298 299 303 313 311 305 298 294 320 3 330 312 300 311 316 315 309 309 315 316 310 311 315 316 317 319 320 318 318 319 318 317 317 316 316 315 313 311 308 307 305
213 208 212 218 217 220 219 218 217 220 237 243 235 232 235 236 235 232 223 208 191 200 219 230 247 248 266 274 274 283 302 304 297 303 303 310 303 297 291 287 296 309 341 315 300 300 310 325 318 308 314 315 308 307 310 312 316 318 318 317 317 317 318 317 317 317 316 316 314 313 310 308 307 307
216 210 210 215 225 218 211 213 211 210 216 221 233 244 249 249 258 254 248 246 232 225 216 232 253 261 256 266 280 295 299 292 296 313 302 310 300 293 284 292 292 301 317 300 312 299 304 323 315 307 309 310 304 303 305 312 315 315 316 317 319 318 318 319 319 318 317 316 313 311 309 308 308 307
218 216 217 221 228 219 212 214 207 204 209 205 214 220 232 234 232 237 246 244 243 246 249 249 256 259 255 268 278 284 274 286 306 305 304 316 302 297 294 285 267 280 289 303 314 281 304 318 309 303 308 311 303 301 307 309 311 314 316 319 320 320 320 320 319 318 317 315 314 312 311 309 308 306
222 219 217 221 230 225 222 221 218 213 199 202 207 223 230 232 233 235 227 230 233 231 231 238 245 246 241 247 264 265 265 307 317 342 11 344 329 327 308 297 311 271 266 285 287 282 291 307 303 302 306 305 302 304 300 303 309 313 318 319 319 320 319 318 318 316 316 315 315 314 313 311 309 308
224 221 218 222 229 231 231 224 222 222 208 199 211 221 228 229 233 239 231 240 239 240 242 244 245 245 247 275 285 288 300 309 312 15 325 286 317 329 306 298 303 284 320 278 256 272 291 309 310 303 305 307 302 300 295 298 304 315 317 317 317 319 319 317 317 318 318 319 318 318 316 313 311 309
230 225 221 222 227 232 235 223 226 226 223 213 206 209 220 231 237 238 213 225 239 243 246 247 248 249 263 275 289 305 306 308 305 239 261 254 237 273 252 280 297 306 304 273 236 285 277 306 314 306 303 295 280 283 289 300 311 313 313 314 315 317 317 319 320 321 322 322 320 319 317 315 313 312
224 232 227 229 230 231 233 228 229 229 225 222 212 206 208 231 237 230 203 225 225 226 227 236 229 244 227 98 36 297 298 299 298 289 254 215 225 255 258 268 304 309 295 239 24 327 309 320 314 325 318 304 289 260 293 305 299 302 309 310 311 314 320 321 322 322 320 319 318 318 318 316 316 311
238 231 231 236 238 238 236 232 231 233 232 225 218 205 219 229 243 208 219 224 221 218 214 221 211 217 191 219 279 287 286 280 261 255 243 229 220 237 253 255 248 252 274 240 346 306 297 301 303 317 302 309 316 316 312 295 301 304 310 310 306 315 320 321 318 317 317 317 317 317 316 316 313 304
236 236 232 233 234 239 240 236 234 235 237 237 224 216 220 226 234 225 228 229 225 215 201 186 177 190 184 247 255 266 269 261 246 245 257 242 234 238 242 257 253 252 261 277 295 303 296 317 298 303 288 270 276 301 305 303 299 303 304 301 303 308 312 311 312 310 311 313 313 314 312 310 309 310
237 238 233 235 227 234 241 244 244 241 239 238 235 229 231 236 238 237 233 214 199 172 182 173 184 196 220 240 252 260 255 253 245 237 238 243 245 242 237 236 252 265 272 261 300 299 292 289 288 296 293 291 288 295 304 305 300 305 307 299 300 301 302 307 309 305 307 305 305 306 309 313 314 314
242 243 236 229 226 232 238 241 244 246 243 240 238 240 240 240 238 239 217 162 172 174 177 187 199 207 209 241 253 253 252 245 233 234 238 237 243 251 247 251 249 257 273 287 275 276 275 277 279 282 290 290 289 300 293 302 305 311 308 313 307 299 303 304 305 307 307 306 306 313 316 315 316 317
245 241 230 218 223 231 233 238 242 244 245 243 244 245 244 244 243 238 181 168 176 183 188 199 210 214 209 224 248 242 235 236 227 233 235 244 248 251 257 257 261 261 271 275 274 261 261 268 276 267 273 289 294 298 299 292 289 302 307 309 303 301 302 311 307 302 302 306 310 316 316 315 313 313
242 238 232 227 228 229 233 237 243 246 246 245 244 245 245 245 244 231 174 189 172 192 205 210 218 216 213 215 225 224 221 237 247 251 262 262 261 259 260 260 261 266 264 269 263 255 252 260 271 274 275 275 281 287 290 292 300 299 306 310 307 305 308 307 300 308 310 307 311 313 310 310 308 308
250 242 241 238 233 232 232 237 235 234 236 244 246 247 247 242 238 197 195 186 198 213 215 212 217 221 205 202 196 203 221 231 251 245 259 284 287 279 277 284 267 252 251 253 258 255 252 258 265 274 278 276 276 283 286 294 292 291 299 292 288 295 287 305 312 309 308 309 310 308 304 297 295 298
270 269 257 237 235 233 234 231 226 229 235 241 245 244 244 246 220 206 200 203 209 220 212 219 218 212 206 134 149 218 211 237 251 224 244 259 268 287 287 286 289 292 273 261 265 263 259 253 259 273 278 282 281 275 283 284 285 292 293 292 302 298 305 311 306 304 305 307 307 302 299 297 295 289
258 259 262 256 246 239 235 233 231 232 224 225 227 230 231 229 207 206 213 216 215 217 199 200 163 164 164 194 210 216 219 236 249 220 222 225 260 252 279 281 279 286 294 280 278 270 263 263 267 268 267 277 287 289 288 280 278 283 285 288 288 286 294 303 306 308 315 316 310 310 308 306 303 304
262 263 260 253 248 235 234 232 234 233 229 226 221 224 226 209 201 202 191 211 213 203 186 207 199 217 184 223 204 221 231 238 243 212 222 250 242 259 227 259 278 293 298 300 292 286 282 282 263 261 262 272 272 277 284 291 282 274 279 289 295 293 297 300 307 315 320 319 318 316 312 309 310 308
258 256 253 251 247 243 237 239 239 234 230 233 226 233 225 217 214 213 218 221 219 193 208 209 198 208 199 223 211 220 231 248 240 238 237 243 222 266 261 275 277 277 283 291 299 297 300 291 290 280 270 266 256 259 264 264 276 284 287 290 294 295 298 302 309 313 311 310 312 310 311 310 308 311
247 253 252 254 250 249 249 249 251 245 233 231 231 230 219 226 224 222 220 223 210 214 208 209 206 201 197 217 208 223 227 231 249 253 241 229 234 234 260 271 280 282 285 294 294 300 304 305 312 314 311 314 313 282 236 242 252 277 293 290 292 294 300 307 306 302 303 303 308 312 310 305 305 320
232 231 248 258 255 250 250 254 255 250 247 243 229 224 218 228 218 217 228 219 204 212 202 206 207 201 206 211 212 214 223 222 235 236 264 255 254 249 241 253 267 275 273 275 287 291 293 295 316 320 319 322 329 319 321 290 314 307 303 299 299 298 300 299 295 296 299 300 311 315 309 311 309 313
245 222 227 240 250 243 243 244 239 238 237 236 236 226 226 231 225 216 227 220 211 208 210 205 211 202 203 200 207 208 210 213 229 222 237 250 256 262 278 277 273 279 285 275 272 285 283 281 297 307 304 310 311 305 293 302 302 300 286 293 300 299 300 302 304 300 292 295 306 311 310 309 305 303
253 243 228 234 237 240 240 242 238 239 237 232 234 235 235 236 239 236 200 197 217 210 210 210 210 195 201 192 198 212 206 216 218 227 242 241 254 262 253 272 278 280 279 284 277 272 269 268 282 279 287 290 302 303 305 311 314 298 283 304 297 299 302 302 301 302 305 303 304 308 310 303 299 296
320 325 316 315 314 306 287 277 267 261 257 249 242 242 243 245 245 235 205 218 213 210 208 208 204 197 197 197 199 204 206 203 214 225 229 230 229 246 264 267 279 279 282 285 276 265 276 273 268 259 265 281 284 294 299 299 295 298 303 301 297 297 302 303 301 304 303 309 307 299 275 267 279 290
351 7 3 7 358 356 356 350 344 334 325 310 295 280 268 266 258 247 241 235 223 219 213 211 206 198 201 195 198 193 206 209 216 226 228 233 234 239 253 257 262 278 282 281 288 282 272 267 264 252 267 280 286 286 285 282 278 279 281 291 304 306 303 305 306 310 307 306 309 307 309 314 310 305
1 356 358 355 351 356 356 352 348 347 335 334 327 317 306 286 278 261 239 236 223 222 212 214 204 207 208 196 196 191 209 216 213 226 234 240 239 243 259 272 277 277 286 284 281 283 274 265 264 291 298 290 288 291 282 272 283 293 297 299 307 312 311 313 310 306 303 306 304 306 309 313 312 317
2 353 347 349 352 348 348 342 341 337 329 327 324 314 305 295 280 283 279 270 248 228 228 220 212 211 214 197 195 194 206 210 214 223 222 225 238 257 264 266 270 274 267 275 279 279 284 293 291 293 286 288 293 292 295 299 295 299 300 304 305 310 314 314 316 313 307 303 307 308 310 307 314 312
3 357 352 352 355 347 342 336 329 328 321 320 313 306 295 284 282 277 274 263 241 224 221 222 214 210 211 202 203 197 198 210 212 225 218 224 226 241 251 251 250 256 263 275 282 286 292 294 294 294 290 283 275 277 289 294 293 294 300 306 310 316 312 315 315 316 319 317 312 309 315 319 317 316
358 350 340 339 333 325 319 314 313 310 317 315 310 308 297 287 278 267 257 264 255 241 233 229 220 208 212 200 189 191 205 213 208 210 222 219 225 231 240 253 264 278 279 279 287 287 289 288 284 284 295 290 287 292 292 298 296 299 297 299 305 316 316 318 318 321 325 326 327 334 336 336 330 324
331 326 316 316 305 301 300 297 300 302 301 303 306 302 302 299 285 286 281 269 268 262 249 238 227 217 205 194 179 206 215 213 212 215 219 223 226 236 246 262 274 275 274 279 288 291 287 284 284 281 270 273 278 281 288 291 297 303 301 306 308 313 314 321 328 330 329 324 328 339 343 342 341 341